| time (UTC) | temp C | wind direction | speed KPH | gust KPH | rain 1hr cm | rain 24hr cm | rain mn cm | humidity % | barometer mb |
| 20260504001602 | 26 | 266 | 1.6 | 8.0 | 0.00 | 0.00 | 0.00 | 35 | 1009.8 |
| 20260504000057 | 26 | 298 | 1.6 | 16.1 | 0.00 | 0.00 | 0.00 | 37 | 1009.9 |
| 20260503234555 | 26 | 263 | 3.2 | 9.7 | 0.00 | 0.00 | 0.00 | 37 | 1009.9 |
| 20260503233103 | 26 | 272 | 4.8 | 11.3 | 0.00 | 0.00 | 0.00 | 32 | 1010.0 |
| 20260503231555 | 26 | 280 | 6.4 | 14.5 | 0.00 | 0.00 | 0.00 | 37 | 1010.2 |
| 20260503230058 | 26 | 294 | 3.2 | 12.9 | 0.00 | 0.00 | 0.00 | 37 | 1010.4 |
| 20260503224555 | 25 | 246 | 4.8 | 12.9 | 0.00 | 0.00 | 0.00 | 41 | 1010.6 |
| 20260503223055 | 25 | 290 | 6.4 | 14.5 | 0.00 | 0.00 | 0.00 | 40 | 1010.8 |
| 20260503221600 | 26 | 266 | 1.6 | 12.9 | 0.00 | 0.00 | 0.00 | 41 | 1010.9 |
| 20260503220104 | 26 | 251 | 3.2 | 9.7 | 0.00 | 0.00 | 0.00 | 36 | 1011.1 |
| 20260503214558 | 25 | 267 | 1.6 | 14.5 | 0.00 | 0.00 | 0.00 | 42 | 1011.1 |
| 20260503213055 | 25 | 272 | 3.2 | 12.9 | 0.00 | 0.00 | 0.00 | 43 | 1011.4 |
| 20260503211555 | 25 | 270 | 4.8 | 11.3 | 0.00 | 0.00 | 0.00 | 37 | 1011.4 |
| 20260503210058 | 25 | 261 | 1.6 | 6.4 | 0.00 | 0.00 | 0.00 | 40 | 1011.6 |
| 20260503204606 | 25 | 231 | 3.2 | 9.7 | 0.00 | 0.00 | 0.00 | 41 | 1011.8 |
| 20260503203107 | 24 | 0 | 3.2 | 17.7 | 0.00 | 0.00 | 0.00 | 44 | 1012.1 |
| 20260503201558 | 24 | 323 | 1.6 | 14.5 | 0.00 | 0.00 | 0.00 | 44 | 1012.1 |
| 20260503200057 | 24 | 244 | 3.2 | 8.0 | 0.00 | 0.00 | 0.00 | 44 | 1012.3 |
| 20260503194614 | 23 | 166 | 3.2 | 11.3 | 0.00 | 0.00 | 0.00 | 46 | 1012.4 |
| 20260503193100 | 23 | 270 | 3.2 | 11.3 | 0.00 | 0.00 | 0.00 | 47 | 1012.6 |
| 20260503191603 | 23 | 349 | 4.8 | 9.7 | 0.00 | 0.00 | 0.00 | 45 | 1012.7 |
| 20260503190101 | 23 | 262 | 3.2 | 14.5 | 0.00 | 0.00 | 0.00 | 44 | 1012.8 |
| 20260503184556 | 22 | 262 | 4.8 | 14.5 | 0.00 | 0.00 | 0.00 | 49 | 1013.0 |
| 20260503183104 | 22 | 328 | 3.2 | 14.5 | 0.00 | 0.00 | 0.00 | 50 | 1013.2 |
| 20260503181555 | 21 | 278 | 3.2 | 16.1 | 0.00 | 0.00 | 0.00 | 53 | 1013.1 |
| 20260503180107 | 21 | 278 | 4.8 | 11.3 | 0.00 | 0.00 | 0.00 | 49 | 1013.2 |
| 20260503173145 | 20 | 264 | 1.6 | 9.7 | 0.00 | 0.00 | 0.00 | 57 | 1013.4 |
| 20260503171555 | 20 | 289 | 3.2 | 9.7 | 0.00 | 0.00 | 0.00 | 52 | 1013.5 |
| 20260503130107 | 11 | 0 | 0.0 | 0.0 | 0.00 | 0.00 | 0.00 | 77 | 1013.2 |
| 20260503100109 | 12 | 0 | 0.0 | 1.6 | 0.00 | 0.00 | 0.00 | 73 | 1013.8 |
| 20260503081558 | 12 | 0 | 0.0 | 0.0 | 0.00 | 0.00 | 0.00 | 71 | 1014.0 |
| 20260503071554 | 13 | 0 | 0.0 | 0.0 | 0.00 | 0.00 | 0.00 | 67 | 1014.0 |
| 20260503054556 | 15 | 0 | 0.0 | 1.6 | 0.00 | 0.00 | 0.00 | 64 | 1013.5 |
| 20260503053053 | 15 | 242 | 0.0 | 1.6 | 0.00 | 0.00 | 0.00 | 59 | 1013.5 |
| 20260503051555 | 16 | 0 | 0.0 | 1.6 | 0.00 | 0.00 | 0.00 | 64 | 1013.4 |
| 20260503050055 | 16 | 237 | 0.0 | 1.6 | 0.00 | 0.00 | 0.00 | 55 | 1013.4 |
| 20260503044557 | 16 | 0 | 0.0 | 1.6 | 0.00 | 0.00 | 0.00 | 56 | 1013.3 |
| 20260503043100 | 17 | 0 | 0.0 | 1.6 | 0.00 | 0.00 | 0.00 | 56 | 1013.1 |
| 20260503041554 | 18 | 0 | 0.0 | 3.2 | 0.00 | 0.00 | 0.00 | 51 | 1013.1 |
| 20260503040057 | 18 | 0 | 1.6 | 9.7 | 0.00 | 0.00 | 0.00 | 49 | 1012.7 |
| 20260503034555 | 19 | 264 | 1.6 | 6.4 | 0.00 | 0.00 | 0.00 | 45 | 1012.4 |
| 20260503033055 | 18 | 255 | 1.6 | 4.8 | 0.00 | 0.00 | 0.00 | 49 | 1012.3 |
| 20260503031607 | 20 | 12 | 1.6 | 9.7 | 0.00 | 0.00 | 0.00 | 50 | 1012.2 |
| 20260503030100 | 20 | 254 | 1.6 | 8.0 | 0.00 | 0.00 | 0.00 | 48 | 1012.1 |
| 20260503024559 | 21 | 60 | 1.6 | 8.0 | 0.00 | 0.00 | 0.00 | 40 | 1012.1 |
| 20260503023058 | 22 | 289 | 0.0 | 6.4 | 0.00 | 0.00 | 0.00 | 42 | 1012.1 |
| 20260503021605 | 22 | 273 | 1.6 | 8.0 | 0.00 | 0.00 | 0.00 | 43 | 1012.2 |
| 20260503020101 | 22 | 251 | 1.6 | 8.0 | 0.00 | 0.00 | 0.00 | 39 | 1012.2 |
| 20260503014559 | 23 | 195 | 3.2 | 12.9 | 0.00 | 0.00 | 0.00 | 42 | 1012.2 |
| 20260503013053 | 23 | 274 | 3.2 | 9.7 | 0.00 | 0.00 | 0.00 | 41 | 1012.2 |
| 20260503011605 | 23 | 292 | 3.2 | 9.7 | 0.00 | 0.00 | 0.00 | 37 | 1012.3 |
| 20260503010054 | 23 | 270 | 4.8 | 11.3 | 0.00 | 0.00 | 0.00 | 42 | 1012.2 |
| 20260503004553 | 24 | 269 | 3.2 | 9.7 | 0.00 | 0.00 | 0.00 | 37 | 1012.3 |
| 20260503003052 | 23 | 244 | 4.8 | 12.9 | 0.00 | 0.00 | 0.00 | 43 | 1012.4 |